Simultaneous Nadir Overpasses (SNOs) Predictions

Prediction of SNOs between LANDSAT-8 and METOP-B Satellite Orbit:

Table of predicted SNOs for the next 14.0 days since TLE Epoch: 5/18/2014
Index Date (LANDSAT-8) Time (LANDSAT-8) Lat,Lon (LANDSAT-8) SZA (LANDSAT-8 ) Date (METOP-B) Time (METOP-B) Lat,Lon (METOP-B) SZA (METOP-B ) Distance(km) Time Diff (sec)
1 05/21/2014 07:00:04 81.09, 113.82 63.05 05/21/2014 06:59:54 81.09, 113.79 63.04 0.58 10
2 05/21/2014 07:49:30 -81.11, -78.19 116.91 05/21/2014 07:50:33 -81.12, -78.19 116.88 0.36 63
3 05/24/2014 02:34:20 81.10,-179.65 62.51 05/24/2014 02:34:17 81.10,-179.72 62.50 1.14 3
4 05/24/2014 03:23:46 -81.12, -11.65 117.44 05/24/2014 03:24:56 -81.12, -11.72 117.42 1.20 70
5 05/26/2014 21:19:13 -81.06, 78.53 118.08 05/26/2014 21:18:02 -81.06, 78.35 118.13 3.12 71
6 05/26/2014 22:08:36 81.11,-113.09 62.03 05/26/2014 22:08:38 81.11,-112.90 62.05 3.31 2
7 05/26/2014 22:57:13 -81.84, 74.59 115.20 05/26/2014 22:58:26 -81.30, 74.99 115.35 60.00 73
8 05/29/2014 16:53:30 -81.07, 145.15 118.51 05/29/2014 16:52:23 -81.07, 145.12 118.54 0.55 67
9 05/29/2014 17:42:55 81.10, -46.83 61.54 05/29/2014 17:43:02 81.10, -46.86 61.55 0.51 7
10 06/01/2014 12:27:50 -81.06,-148.54 118.94 06/01/2014 12:26:46 -81.07,-148.52 118.96 0.71 64




NCC Satellite Simultaneous Nadir Overpasses (SNOs) Prediction Service
